[[{"header":{"parameterUnit":"m.s-1","parameterCategory":1,"la1":30.2991,"la2":30.254,"lo1":-89.0895,"lo2":-89.0444,"dy":0.0017,"dx":0.0017,"nx":28,"ny":28,"refTime":"2024-03-24T03:00:00:Z","depth":0,"parameterNumber":2,"parameterNumberName":"U-component_of_WINDS"},"data":[0,0,0,0,0,0,0,0,0,0,0,0,0,0,0,0,0,0,0,0,0,0,0,0,0,0,0,0,0,0,0,0,0,0,0,0,0,0,0,0,0,0,0,0,0,0,0,0,0,0,0,0,0,0,0,0,0,0,0.4052,0.4051,0,0.4028,0.4028,0.4027,0.4012,0.4012,0.4012,0.4012,0.3987,0.3986,0.3986,0,0,0,0,0,0,0,0,0,0,0,0,0,0.4085,0.4084,0.4052,0.4051,0.4051,0.4028,0.4028,0.4027,0.4012,0.4012,0.4012,0.4012,0.3987,0.3986,0.3986,0,0,0,0,0,0,0,0,0,0,0,0,0,0.4067,0.4084,0.4052,0.4041,0.404,0.4028,0.4028,0.4027,0.4012,0.4012,0.4012,0.4012,0.3987,0.3986,0.3985,0.3982,0,0,0.3983,0.3982,0,0,0,0,0,0,0,0,0.4068,0.4065,0.4043,0.4042,0.404,0.4023,0.403,0.4012,0.4012,0.4023,0.4012,0.4012,0.3999,0.3997,0.3993,0.3981,0.398,0.3983,0.3982,0.3982,0.3981,0,0,0,0,0,0,0,0.4069,0.4066,0.4042,0.4042,0.4041,0.4037,0.4035,0.4027,0.4012,0.4022,0.4021,0.4018,0.3998,0.3994,0.3992,0.398,0.3983,0.3982,0.3981,0.3981,0.3967,0.3967,0,0,0,0,0,0,0.4072,0.4068,0.4043,0.4041,0.4054,0.4037,0.4034,0.4029,0.4012,0.4009,0.4018,0.4017,0.3995,0.3993,0.3991,0.3987,0.3982,0.3981,0.398,0.3967,0.3967,0.3967,0,0,0,0,0,0,0.4073,0.407,0.4044,0.4054,0.4051,0.4036,0.4031,0.4028,0.4024,0.4009,0.4006,0.4016,0.3995,0.3992,0.3985,0.3986,0.398,0.398,0.3966,0.3967,0.3967,0.398,0,0,0,0,0,0,0.4074,0.407,0.4069,0.4054,0.405,0.4038,0.4031,0.4028,0.4022,0.4021,0.4007,0.4004,0.3995,0.3987,0.3984,0.3985,0.3979,0.3966,0.3967,0.3967,0.3979,0.398,0.3981,0,0,0,0,0,0.4075,0.4072,0.4069,0.4066,0.4048,0.4038,0.4036,0.4025,0.4022,0.4021,0.4012,0.4004,0.3987,0.3986,0.3983,0.3984,0.3966,0.3966,0.3967,0.3979,0.398,0.3981,0,0,0,0,0,0,0.4086,0.407,0.4066,0.4058,0.405,0.4036,0.4033,0.4027,0.4019,0.4018,0.4005,0.4002,0.3997,0.3989,0.3989,0.3981,0.3976,0.3976,0.3986,0.3987,0.3988,0.399,0.3978,0,0,0,0,0,0.4088,0.4082,0.4068,0.4063,0.4059,0.4047,0.4042,0.4036,0.4026,0.4022,0.4012,0.4003,0.3996,0.3991,0.3983,0.3979,0.3976,0.3978,0.3979,0.398,0.398,0.3978,0.3979,0.3968,0.3968,0.3968,0,0,0.4091,0.4082,0.4078,0.4065,0.4058,0.4052,0.4044,0.4037,0.4033,0.4021,0.4014,0.4007,0.3996,0.399,0.3987,0.3984,0.3983,0.398,0.3981,0.398,0.3979,0.398,0.3981,0.3968,0.3968,0.3968,0,0,0.4094,0.4086,0.4082,0.4075,0.4064,0.4057,0.4056,0.4043,0.4038,0.4031,0.4023,0.4017,0.4004,0.3998,0.3993,0.3996,0.3989,0.3994,0.4,0.3998,0.3999,0.4,0.4002,0.4003,0.3994,0.3994,0.3994,0,0.4099,0.409,0.408,0.4075,0.407,0.406,0.4056,0.405,0.4037,0.4034,0.4031,0.4016,0.4008,0.4001,0.4003,0.3998,0.3998,0.3995,0.4,0.4001,0.4001,0.4003,0.4004,0.3995,0.3995,0.3995,0.3994,0,0.4097,0.4091,0.4089,0.4078,0.4073,0.4068,0.4058,0.4054,0.4049,0.4042,0.4036,0.4026,0.4017,0.4015,0.4009,0.4009,0.4007,0.4002,0.3997,0.4003,0.4004,0.4005,0.3996,0.3995,0.3995,0.3995,0,0,0.4104,0.409,0.4089,0.4085,0.4074,0.4069,0.4065,0.4057,0.4054,0.4046,0.4043,0.4033,0.403,0.4024,0.4017,0.4016,0.4021,0.4012,0.4011,0.4014,0.4021,0.4025,0.4025,0.4017,0.4017,0.4017,0.4022,0,0.4105,0.4097,0.409,0.4084,0.4079,0.4071,0.4067,0.4061,0.4055,0.405,0.4043,0.4037,0.4032,0.4029,0.4028,0.4021,0.4022,0.402,0.4014,0.4014,0.4016,0.4026,0.4029,0.4034,0.4023,0.4023,0.4023,0,0.4105,0.4099,0.4093,0.4085,0.4082,0.4079,0.4072,0.4068,0.406,0.4056,0.4051,0.4045,0.4041,0.4037,0.4032,0.4031,0.4028,0.4024,0.4024,0.4023,0.4018,0.4025,0.4036,0.4036,0.4023,0.4023,0.4023,0,0.4111,0.4102,0.4098,0.4094,0.4084,0.4082,0.4077,0.407,0.4067,0.4061,0.4059,0.4052,0.4049,0.4045,0.4037,0.4035,0.4033,0.4028,0.403,0.4031,0.4029,0.4029,0.404,0.4028,0.4028,0.4028,0.4028,0,0.4113,0.411,0.4101,0.4098,0.4095,0.4087,0.4084,0.4079,0.4073,0.407,0.4063,0.406,0.4051,0.4047,0.4041,0.4039,0.4037,0.4034,0.4033,0.4035,0.4035,0.4032,0.4031,0.4028,0.4028,0.4028,0.4028,0,0.4119,0.4112,0.4107,0.4099,0.4097,0.4095,0.4088,0.4085,0.408,0.4076,0.4075,0.4067,0.4063,0.4055,0.4048,0.4045,0.4043,0.4041,0.4046,0.4045,0.4047,0.4047,0.4056,0.4057,0.4045,0.4045,0.4045,0,0.412,0.4118,0.411,0.4108,0.4104,0.41,0.4097,0.409,0.4087,0.408,0.4079,0.4074,0.407,0.4064,0.4057,0.4053,0.405,0.4053,0.4049,0.4052,0.405,0.405,0.4051,0.4054,0.4054,0.4054,0.4054,0,0.4124,0.4121,0.4117,0.4112,0.4109,0.4105,0.41,0.4099,0.4091,0.4089,0.4084,0.4081,0.4076,0.4071,0.4066,0.4062,0.4057,0.4056,0.4056,0.4058,0.4061,0.406,0.4048,0.4056,0.4055,0.4055,0.4055,0.4055,0.4127,0.4125,0.412,0.4116,0.4113,0.4109,0.4107,0.4103,0.4099,0.4094,0.4091,0.4087,0.4082,0.4075,0.4072,0.407,0.4067,0.4067,0.4067,0.4067,0.4069,0.4062,0.4069,0.4069,0.4069,0.4069,0.4068,0,0.413,0.4127,0.4124,0.4119,0.4116,0.4113,0.4109,0.4107,0.4104,0.41,0.4097,0.4093,0.409,0.4084,0.4081,0.408,0.4078,0.4079,0.4079,0.4078,0.4071,0.4071,0.4081,0.4081,0.4081,0.4081,0.4081,0.4081,0.4132,0.4129,0.4126,0.4123,0.412,0.4117,0.4114,0.4112,0.4109,0.4105,0.4103,0.41,0.4096,0.4092,0.4089,0.4088,0.4087,0.4089,0.4087,0.408,0.4079,0.4077,0.4078,0.4089,0.4089,0.4095,0.4095,0.4095]},{"header":{"parameterUnit":"m.s-1","parameterCategory":1,"la1":30.2991,"la2":30.254,"lo1":-89.0895,"lo2":-89.0444,"dy":0.0017,"dx":0.0017,"nx":28,"ny":28,"refTime":"2024-03-24T03:00:00:Z","depth":0,"parameterNumber":3,"parameterNumberName":"V-component_of_WINDS"},"data":[0,0,0,0,0,0,0,0,0,0,0,0,0,0,0,0,0,0,0,0,0,0,0,0,0,0,0,0,0,0,0,0,0,0,0,0,0,0,0,0,0,0,0,0,0,0,0,0,0,0,0,0,0,0,0,0,0,0,-4.7681,-4.7681,0,-4.7689,-4.7689,-4.769,-4.7658,-4.7657,-4.7656,-4.7655,-4.7662,-4.7663,-4.7664,0,0,0,0,0,0,0,0,0,0,0,0,0,-4.7637,-4.7638,-4.7681,-4.7681,-4.7682,-4.7689,-4.7689,-4.769,-4.7658,-4.7657,-4.7656,-4.7655,-4.7661,-4.7663,-4.7664,0,0,0,0,0,0,0,0,0,0,0,0,0,-4.7652,-4.7639,-4.7681,-4.7667,-4.7666,-4.7689,-4.7689,-4.769,-4.7658,-4.7657,-4.7655,-4.7654,-4.7661,-4.7663,-4.7664,-4.7702,0,0,-4.7669,-4.767,0,0,0,0,0,0,0,0,-4.7651,-4.7654,-4.7669,-4.7668,-4.7666,-4.7671,-4.7676,-4.7694,-4.7659,-4.7661,-4.7655,-4.7653,-4.7666,-4.7667,-4.7672,-4.7702,-4.7703,-4.7669,-4.767,-4.7671,-4.7671,0,0,0,0,0,0,0,-4.765,-4.7653,-4.7684,-4.7669,-4.7668,-4.7659,-4.766,-4.768,-4.7671,-4.7661,-4.7658,-4.766,-4.7665,-4.767,-4.7672,-4.7703,-4.7669,-4.767,-4.7671,-4.7672,-4.7764,-4.7766,0,0,0,0,0,0,-4.7651,-4.7652,-4.7684,-4.7685,-4.7655,-4.7661,-4.7662,-4.7671,-4.7671,-4.767,-4.7661,-4.7658,-4.7668,-4.767,-4.7672,-4.7715,-4.7671,-4.7672,-4.7673,-4.7763,-4.7765,-4.7766,0,0,0,0,0,0,-4.765,-4.7654,-4.7684,-4.7668,-4.7671,-4.7664,-4.7674,-4.7672,-4.7677,-4.7671,-4.7669,-4.7668,-4.7667,-4.7669,-4.7695,-4.7715,-4.7673,-4.7674,-4.7761,-4.7764,-4.7766,-4.7804,0,0,0,0,0,0,-4.7649,-4.7654,-4.7669,-4.7669,-4.7672,-4.7707,-4.7675,-4.7673,-4.768,-4.7677,-4.7677,-4.7676,-4.7666,-4.7693,-4.7696,-4.7717,-4.7676,-4.7759,-4.7762,-4.7765,-4.7801,-4.7807,-4.7813,0,0,0,0,0,-4.7648,-4.7679,-4.767,-4.7674,-4.769,-4.7708,-4.771,-4.7699,-4.7682,-4.7696,-4.7692,-4.7676,-4.7713,-4.7695,-4.7699,-4.7721,-4.7758,-4.7761,-4.7765,-4.7798,-4.7806,-4.7812,0,0,0,0,0,0,-4.7681,-4.7679,-4.7668,-4.77,-4.7705,-4.7703,-4.7721,-4.7708,-4.7717,-4.7713,-4.7698,-4.7699,-4.7727,-4.7726,-4.7707,-4.7757,-4.7732,-4.7737,-4.7756,-4.7764,-4.7769,-4.7769,-4.7677,0,0,0,0,0,-4.7692,-4.7708,-4.7705,-4.7733,-4.7736,-4.7728,-4.7736,-4.7727,-4.7731,-4.7732,-4.773,-4.7734,-4.7747,-4.7755,-4.7766,-4.7801,-4.78,-4.7817,-4.7823,-4.7828,-4.7832,-4.785,-4.7857,-4.7778,-4.7778,-4.7778,0,0,-4.7715,-4.7716,-4.7726,-4.774,-4.7742,-4.7758,-4.773,-4.7748,-4.776,-4.7735,-4.7758,-4.7758,-4.7761,-4.7791,-4.7804,-4.7791,-4.7854,-4.7833,-4.7837,-4.7837,-4.7854,-4.7861,-4.7868,-4.778,-4.7779,-4.7779,0,0,-4.7765,-4.7767,-4.7791,-4.7795,-4.7799,-4.7794,-4.78,-4.78,-4.7798,-4.7822,-4.7804,-4.7817,-4.7839,-4.7842,-4.7847,-4.7899,-4.7884,-4.7903,-4.7934,-4.7951,-4.7958,-4.7963,-4.7981,-4.7988,-4.7907,-4.7907,-4.7907,0,-4.7793,-4.7816,-4.7805,-4.7824,-4.7831,-4.781,-4.7834,-4.7838,-4.7845,-4.785,-4.7836,-4.7863,-4.7864,-4.7894,-4.7907,-4.7912,-4.7917,-4.7902,-4.7958,-4.7963,-4.7968,-4.7985,-4.7992,-4.7909,-4.7909,-4.7909,-4.7909,0,-4.785,-4.7867,-4.7886,-4.7894,-4.7903,-4.7924,-4.7916,-4.7926,-4.7916,-4.7913,-4.7937,-4.7938,-4.7948,-4.7955,-4.7946,-4.7984,-4.7976,-4.7961,-4.7935,-4.7978,-4.7994,-4.8,-4.7913,-4.7912,-4.7911,-4.7911,0,0,-4.792,-4.7923,-4.7929,-4.7933,-4.7937,-4.7949,-4.797,-4.7982,-4.799,-4.7996,-4.8013,-4.8032,-4.8018,-4.8023,-4.8014,-4.803,-4.807,-4.8012,-4.8012,-4.8022,-4.8112,-4.8123,-4.8131,-4.8061,-4.8062,-4.8063,-4.8111,0,-4.7968,-4.8004,-4.7994,-4.803,-4.8045,-4.8026,-4.8044,-4.8048,-4.8045,-4.8058,-4.8054,-4.8068,-4.8048,-4.8051,-4.8066,-4.8062,-4.8088,-4.8059,-4.8075,-4.8076,-4.8074,-4.8139,-4.8151,-4.8197,-4.8118,-4.8119,-4.8119,0,-4.8029,-4.8038,-4.8075,-4.8077,-4.8083,-4.8099,-4.8109,-4.8121,-4.8125,-4.8122,-4.8129,-4.8117,-4.8137,-4.8112,-4.8139,-4.812,-4.8126,-4.8125,-4.8127,-4.8127,-4.81,-4.814,-4.8211,-4.8217,-4.8129,-4.8128,-4.8128,0,-4.8075,-4.8097,-4.8122,-4.8126,-4.8129,-4.814,-4.8142,-4.8145,-4.8153,-4.8161,-4.8166,-4.8176,-4.8182,-4.819,-4.8181,-4.8164,-4.8209,-4.8184,-4.8207,-4.8207,-4.8216,-4.8215,-4.8288,-4.8222,-4.8222,-4.8222,-4.8222,0,-4.8129,-4.8153,-4.8143,-4.8158,-4.8184,-4.8173,-4.8198,-4.8198,-4.8201,-4.8215,-4.8199,-4.8213,-4.8201,-4.8214,-4.8207,-4.823,-4.8233,-4.8231,-4.8228,-4.8231,-4.8232,-4.8235,-4.8231,-4.8224,-4.8223,-4.8223,-4.8222,0,-4.8185,-4.8179,-4.8205,-4.8206,-4.8207,-4.8226,-4.8226,-4.824,-4.8236,-4.8255,-4.8259,-4.8253,-4.8267,-4.8259,-4.8274,-4.8269,-4.8299,-4.8293,-4.8298,-4.8296,-4.8318,-4.8316,-4.8394,-4.8404,-4.8333,-4.8334,-4.8334,0,-4.8219,-4.8237,-4.824,-4.8249,-4.8252,-4.8266,-4.8274,-4.8264,-4.8273,-4.8279,-4.8293,-4.8306,-4.8315,-4.8339,-4.8336,-4.8347,-4.834,-4.8367,-4.8341,-4.8344,-4.8339,-4.8338,-4.8339,-4.8371,-4.8372,-4.8373,-4.8373,0,-4.8281,-4.8278,-4.829,-4.8301,-4.8311,-4.8319,-4.8326,-4.8334,-4.8325,-4.8335,-4.835,-4.8358,-4.8373,-4.8386,-4.8395,-4.8396,-4.8383,-4.8382,-4.8387,-4.839,-4.8392,-4.839,-4.8311,-4.838,-4.8379,-4.8379,-4.8378,-4.8378,-4.8326,-4.8341,-4.8345,-4.8359,-4.8364,-4.8371,-4.8384,-4.8383,-4.8395,-4.8407,-4.84,-4.8417,-4.8421,-4.8433,-4.8436,-4.8449,-4.8438,-4.8446,-4.8448,-4.845,-4.8453,-4.8391,-4.8451,-4.8451,-4.845,-4.845,-4.845,0,-4.8386,-4.8388,-4.8402,-4.8412,-4.8423,-4.8411,-4.8418,-4.8428,-4.8444,-4.8449,-4.8459,-4.8476,-4.8489,-4.8487,-4.8498,-4.8509,-4.8503,-4.8512,-4.851,-4.8511,-4.8462,-4.8456,-4.8517,-4.8516,-4.8516,-4.8516,-4.8516,-4.8516,-4.8419,-4.8443,-4.844,-4.8466,-4.8468,-4.8485,-4.849,-4.8497,-4.8501,-4.852,-4.8531,-4.853,-4.8532,-4.8544,-4.8555,-4.8554,-4.8559,-4.857,-4.8567,-4.8521,-4.8514,-4.8508,-4.8502,-4.8571,-4.8571,-4.8614,-4.8614,-4.8614]}]]